TimeEST,TemperatureF,Dew PointF,Humidity,Sea Level PressureIn,VisibilityMPH,Wind Direction,Wind SpeedMPH,Gust SpeedMPH,PrecipitationIn,Events,Conditions,WindDirDegrees,DateUTC
12:54 AM,46.9,41.0,80,30.20,10.0,NNE,8.1,-,N/A,,Overcast,30,2012-12-07 05:54:00
1:54 AM,46.9,41.0,80,30.19,10.0,NNE,6.9,-,N/A,,Overcast,30,2012-12-07 06:54:00
2:54 AM,46.9,41.0,80,30.18,10.0,NE,5.8,-,N/A,,Overcast,40,2012-12-07 07:54:00
3:54 AM,46.9,42.1,83,30.17,10.0,NNE,8.1,-,N/A,,Overcast,30,2012-12-07 08:54:00
4:54 AM,48.0,43.0,83,30.17,10.0,NE,8.1,-,N/A,,Overcast,40,2012-12-07 09:54:00
5:54 AM,46.9,43.0,86,30.16,10.0,NE,4.6,-,N/A,,Mostly Cloudy,40,2012-12-07 10:54:00
6:54 AM,46.9,43.0,86,30.17,10.0,NNE,6.9,-,N/A,,Mostly Cloudy,30,2012-12-07 11:54:00
7:54 AM,48.0,44.1,86,30.17,10.0,NE,4.6,-,N/A,,Overcast,40,2012-12-07 12:54:00
8:54 AM,50.0,45.0,83,30.17,10.0,NNE,4.6,-,N/A,,Overcast,30,2012-12-07 13:54:00
9:54 AM,54.0,48.0,80,30.17,10.0,ENE,6.9,-,N/A,,Overcast,70,2012-12-07 14:54:00
10:54 AM,59.0,51.1,75,30.14,10.0,East,5.8,-,N/A,,Overcast,90,2012-12-07 15:54:00
11:54 AM,63.0,54.0,72,30.11,10.0,ESE,5.8,-,N/A,,Overcast,110,2012-12-07 16:54:00
12:54 PM,64.9,57.0,75,30.08,10.0,SE,5.8,-,N/A,,Overcast,130,2012-12-07 17:54:00
1:42 PM,66.2,57.2,73,30.06,10.0,SE,4.6,-,N/A,,Overcast,130,2012-12-07 18:42:00
1:54 PM,64.9,59.0,81,30.06,10.0,SE,5.8,-,0.00,Rain,Light Rain,130,2012-12-07 18:54:00
2:54 PM,64.9,60.1,84,30.04,10.0,East,5.8,-,0.00,,Overcast,80,2012-12-07 19:54:00
3:52 PM,64.4,60.8,88,30.05,10.0,ESE,4.6,-,N/A,,Overcast,120,2012-12-07 20:52:00
3:54 PM,64.9,60.1,84,30.05,9.0,ESE,4.6,-,0.00,Rain,Light Rain,120,2012-12-07 20:54:00
4:41 PM,62.6,60.8,94,30.04,4.0,Calm,Calm,-,0.02,Rain,Light Rain,0,2012-12-07 21:41:00
4:54 PM,62.1,61.0,96,30.04,4.0,ESE,4.6,-,0.02,Rain,Light Rain,110,2012-12-07 21:54:00
5:35 PM,62.6,60.8,94,30.04,2.0,Calm,Calm,-,0.04,Rain,Rain,0,2012-12-07 22:35:00
5:42 PM,62.6,60.8,94,30.04,2.0,ESE,3.5,-,0.07,Rain,Rain,120,2012-12-07 22:42:00
5:49 PM,62.6,60.8,94,30.04,2.0,East,3.5,-,0.10,Rain,Rain,100,2012-12-07 22:49:00
5:54 PM,63.0,61.0,93,30.04,2.0,East,3.5,-,0.10,Rain,Rain,100,2012-12-07 22:54:00
6:01 PM,62.6,60.8,94,30.04,6.0,Calm,Calm,-,0.00,Rain,Rain,0,2012-12-07 23:01:00
6:14 PM,62.6,60.8,94,30.04,2.0,Calm,Calm,-,0.00,Rain,Rain,0,2012-12-07 23:14:00
6:30 PM,62.6,60.8,94,30.03,2.0,ESE,3.5,-,0.00,Rain,Rain,110,2012-12-07 23:30:00
6:54 PM,63.0,61.0,93,30.03,2.0,ESE,4.6,-,0.00,Rain,Rain,110,2012-12-07 23:54:00
7:01 PM,62.6,60.8,94,30.03,10.0,ESE,3.5,-,0.00,Rain,Rain,120,2012-12-08 00:01:00
7:35 PM,62.6,60.8,94,30.02,3.0,ESE,6.9,-,0.01,Rain,Rain,120,2012-12-08 00:35:00
8:54 PM,63.0,62.1,97,30.02,3.0,SSE,4.6,-,0.00,Rain,Rain,150,2012-12-08 01:54:00
9:54 PM,63.0,62.1,97,30.00,10.0,South,5.8,-,0.00,Rain,Rain,170,2012-12-08 02:54:00
10:15 PM,62.6,62.6,100,30.00,10.0,SSE,3.5,-,0.00,Rain,Rain,160,2012-12-08 03:15:00
10:54 PM,63.0,62.1,97,30.01,10.0,South,4.6,-,0.00,Rain,Rain,170,2012-12-08 03:54:00
11:30 PM,64.4,62.6,94,30.00,2.5,SSE,4.6,-,0.06,Rain,Rain,150,2012-12-08 04:30:00
11:39 PM,64.4,62.6,94,30.00,8.0,SSE,3.5,-,0.07,Rain,Rain,160,2012-12-08 04:39:00
11:54 PM,64.0,63.0,96,30.00,10.0,Calm,Calm,-,0.07,Rain,Rain,0,2012-12-08 04:54:00